Regional Weather Roundup
Issued by NWS Charleston, WV

Home | Current Version | Previous Version | Graphics & Text | Print | Product List | Glossary On
Versions: 1 2 3 4 5 6 7 8 9 10 11 12 13 14 15 16 17 18 19 20 21 22 23 24 25 26 27 28 29 30 31 32 33 34 35 36 37 38 39 40 41 42 43 44 45 46 47 48 49 50
000
ASUS41 KRLX 290110
RWRRLX
West Virginia Regional Weather Roundup
National Weather Service Charleston WV
800 PM EST FRI NOV 28 2014

Note: "fair" indicates few or no clouds below 12,000 feet with no
significant weather and/or obstructions to visibility.

WVZ003-290200-
Northern Panhandle of West Virginia

CITY           SKY/WX    TMP DP  RH WIND       PRES   REMARKS
WHEELING       MOCLDY    26  19  74 S6        30.21F
$$

WVZ009-290200-
Northwest West Virginia

CITY           SKY/WX    TMP DP  RH WIND       PRES   REMARKS
PARKERSBURG    MOCLDY    29  17  61 SE5       30.25F
$$

WVZ006-290200-
Western West Virginia

CITY           SKY/WX    TMP DP  RH WIND       PRES   REMARKS
HUNTINGTON     CLEAR     28  18  66 E5        30.21F
$$

WVZ015-290200-
West Central West Virginia

CITY           SKY/WX    TMP DP  RH WIND       PRES   REMARKS
CHARLESTON     PTCLDY    28  21  75 CALM      30.22F
$$

WVZ022-031-290200-
North Central West Virginia

CITY           SKY/WX    TMP DP  RH WIND       PRES   REMARKS
CLARKSBURG     CLOUDY    26  18  71 SE3       30.22F
MORGANTOWN     PTCLDY    26  14  60 CALM      30.24S
$$

WVZ025-035-042-045-290200-
Southern West Virginia

CITY           SKY/WX    TMP DP  RH WIND       PRES   REMARKS
BECKLEY        CLEAR     24  17  74 S6        30.17F
LOGAN            N/A     30  21  69 S7        30.19F
BLUEFIELD      CLEAR     27  15  61 W3        30.18F
LEWISBURG      CLEAR     23  18  78 CALM      30.20F
$$

WVZ047-290200-
Northern Mountains of West Virginia

CITY           SKY/WX    TMP DP  RH WIND       PRES   REMARKS
ELKINS           N/A     15  14  95 CALM      30.20F
$$

WVZ052-290200-
Eastern Panhandle of West Virginia

CITY           SKY/WX    TMP DP  RH WIND       PRES   REMARKS
MARTINSBURG    PTCLDY    28  15  58 W3        30.28S
PETERSBURG     NOT AVBL
$$


USA.gov is the U.S. government's official web portal to all federal, state and local government web resources and services.